Weather History for Perry, FL

Change the Weather History Date:

Saturday, June 29, 2013

  Actual Average (KCTY) Record (KCTY)
Temperature  
Mean Temperature 78 °F 81 °F  
Max Temperature 84 °F 91 °F 100 °F (1998)
Min Temperature 71 °F 71 °F 64 °F (2012)
Degree Days  
Heating Degree Days 0 0  
Month to date heating degree days 0  
Since 1 June heating degree days 0  
Since 1 July heating degree days 1306  
Cooling Degree Days 12 16  
Month to date cooling degree days 432  
Year to date cooling degree days 911  
Since 1 June cooling degree days 432  
Growing Degree Days 28 (Base 50)    
Moisture  
Dew Point 72 °F    
Average Humidity 85    
Maximum Humidity 100    
Minimum Humidity 67    
Precipitation  
Precipitation 0.34 in 0.19 in 2.58 in (2011)
Month to date precipitation 4.91  
Year to date precipitation 22.08  
Sea Level Pressure  
Sea Level Pressure 29.80 in    
Wind  
Wind Speed 4 mph (SSW)    
Max Wind Speed 12 mph    
Max Gust Speed 28 mph    
Visibility 9 miles    
Events Rain , Thunderstorm    
T = Trace of Precipitation, MM = Missing Value Source: NWS Daily Summary

Daily Weather History Graph

Daily Weather History Graph

Search for Another Location

Airport:

Trip Planner

Search our weather history database for the weather conditions in past years. The results will help you decide how hot, cold, wet, or windy it might be!

Date:

Astronomy

Jun. 29, 2013 Rise Set
Actual Time 6:35 AM EDT 8:39 PM EDT
Civil Twilight 6:08 AM EDT 9:07 PM EDT
Nautical Twilight 5:35 AM EDT 9:40 PM EDT
Astronomical Twilight 4:59 AM EDT 10:15 PM EDT
Moon 12:37 AM EDT (6/29) 1:14 PM EDT (6/29)
Length of Visible Light 14h 58m
Length of Day
14h 03m
Waning Gibbous, 56% of the Moon is Illuminated
Jun 29
Waning Gibbous
Jun 30
Last Quarter
Jul 8
New
Jul 15
First Quarter
Jul 22
Full

Hourly Weather History & Observations

Time (EDT) Temp. Heat Index Dew Point Humidity Pressure Visibility Wind Dir Wind Speed Gust Speed Precip Events Conditions
12:15 AM 71.6 °F - 69.8 °F 94% 29.84 in 10.0 mi Calm Calm - N/A   Clear
12:35 AM 71.6 °F - 69.8 °F 94% 29.83 in 7.0 mi Calm Calm - N/A   Clear
12:53 AM 73.0 °F - 71.1 °F 93% 29.80 in - ESE 3.5 mph - N/A   Unknown
12:55 AM 71.6 °F - 69.8 °F 94% 29.82 in 7.0 mi SE 3.5 mph - N/A   Clear
1:15 AM 71.6 °F - 69.8 °F 94% 29.81 in 10.0 mi Calm Calm - N/A   Scattered Clouds
1:35 AM 71.6 °F - 69.8 °F 94% 29.81 in 10.0 mi Calm Calm - N/A   Scattered Clouds
1:53 AM 75.0 °F - 71.1 °F 87% 29.80 in - WSW 3.5 mph - N/A   Unknown
1:55 AM 71.6 °F - 71.6 °F 100% 29.82 in 10.0 mi Calm Calm - N/A   Clear
2:15 AM 73.4 °F - 71.6 °F 94% 29.82 in 10.0 mi Calm Calm - N/A   Clear
2:35 AM 73.4 °F - 71.6 °F 94% 29.81 in 10.0 mi Calm Calm - N/A   Clear
2:53 AM 75.9 °F - 72.0 °F 87% 29.80 in - Calm Calm - N/A   Unknown
2:55 AM 73.4 °F - 71.6 °F 94% 29.82 in 10.0 mi Calm Calm - N/A   Clear
3:15 AM 73.4 °F - 71.6 °F 94% 29.82 in 10.0 mi Calm Calm - N/A   Clear
3:35 AM 73.4 °F - 71.6 °F 94% 29.80 in 10.0 mi Calm Calm - N/A   Scattered Clouds
3:53 AM 77.0 °F - 73.0 °F 88% 29.78 in - Calm Calm - N/A   Unknown
3:55 AM 73.4 °F - 71.6 °F 94% 29.80 in 10.0 mi Calm Calm - N/A   Scattered Clouds
4:15 AM 75.2 °F - 73.4 °F 94% 29.80 in 10.0 mi Calm Calm - N/A Thunderstorm Scattered Clouds
4:35 AM 75.2 °F - 73.4 °F 94% 29.80 in 7.0 mi SW 5.8 mph - N/A Rain , Thunderstorm Rain
4:53 AM 75.0 °F - 68.0 °F 79% 29.78 in - South 9.2 mph 27.6 mph 0.08 in   Unknown
4:55 AM 71.6 °F - 69.8 °F 94% 29.79 in 5.0 mi South 9.2 mph 25.3 mph 0.07 in Rain , Thunderstorm Heavy Thunderstorms and Rain
5:15 AM 73.4 °F - 69.8 °F 88% 29.80 in 10.0 mi South 3.5 mph - N/A Thunderstorm Thunderstorm
5:35 AM 73.4 °F - 69.8 °F 88% 29.82 in 10.0 mi SW 11.5 mph 20.7 mph N/A Thunderstorm Thunderstorm
5:53 AM 73.9 °F - 69.1 °F 85% 29.79 in - SSE 5.8 mph - 0.07 in   Unknown
5:55 AM 71.6 °F - 69.8 °F 94% 29.80 in 7.0 mi SSE 5.8 mph - 0.05 in Rain Light Rain
6:15 AM 71.6 °F - 69.8 °F 94% 29.80 in 10.0 mi Calm Calm - 0.01 in Thunderstorm Scattered Clouds
6:35 AM 71.6 °F - 69.8 °F 94% 29.81 in 10.0 mi WSW 5.8 mph - 0.01 in Thunderstorm Thunderstorm
6:53 AM 73.9 °F - 70.0 °F 87% 29.80 in - SW 8.1 mph - 0.01 in   Unknown
6:55 AM 71.6 °F - 69.8 °F 94% 29.82 in 10.0 mi SW 8.1 mph - 0.01 in Thunderstorm Scattered Clouds
7:15 AM 71.6 °F - 69.8 °F 94% 29.82 in 7.0 mi West 9.2 mph - 0.01 in Rain , Thunderstorm Rain
7:35 AM 71.6 °F - 69.8 °F 94% 29.82 in 7.0 mi SW 5.8 mph - 0.04 in Rain , Thunderstorm Rain
7:53 AM 73.9 °F - 70.0 °F 87% 29.80 in - SW 3.5 mph - 0.11 in   Unknown
7:55 AM 71.6 °F - 69.8 °F 94% 29.82 in 4.0 mi SW 3.5 mph - 0.10 in Rain , Thunderstorm Rain
8:15 AM 71.6 °F - 69.8 °F 94% 29.82 in 5.0 mi SSW 5.8 mph - 0.02 in Rain Rain
8:35 AM 71.6 °F - 69.8 °F 94% 29.81 in 7.0 mi South 4.6 mph - 0.03 in Rain Light Rain
8:53 AM 73.9 °F - 71.1 °F 91% 29.79 in - South 6.9 mph - 0.06 in   Unknown
8:55 AM 71.6 °F - 69.8 °F 94% 29.80 in 10.0 mi South 5.8 mph - 0.04 in   Scattered Clouds
9:15 AM 73.4 °F - 71.6 °F 94% 29.79 in 10.0 mi South 4.6 mph - N/A   Clear
9:35 AM 73.4 °F - 71.6 °F 94% 29.79 in 10.0 mi South 5.8 mph - N/A Rain Light Rain
9:53 AM 75.9 °F - 72.0 °F 87% 29.80 in - SSW 4.6 mph - N/A   Unknown
9:55 AM 73.4 °F - 71.6 °F 94% 29.81 in 10.0 mi SW 4.6 mph - N/A Rain Light Rain
10:15 AM 73.4 °F - 71.6 °F 94% 29.83 in 10.0 mi SSW 4.6 mph - N/A   Light Drizzle
10:35 AM 75.2 °F - 73.4 °F 94% 29.84 in 10.0 mi SSW 4.6 mph - N/A   Scattered Clouds
10:53 AM 78.1 °F - 73.9 °F 87% 29.82 in - SSE 4.6 mph - N/A   Unknown
10:55 AM 75.2 °F - 73.4 °F 94% 29.83 in 7.0 mi SSE 4.6 mph - N/A Rain Light Rain
11:15 AM 77.0 °F - 73.4 °F 89% 29.83 in 10.0 mi SSE 3.5 mph - N/A   Light Drizzle
11:35 AM 77.0 °F - 73.4 °F 89% 29.82 in 10.0 mi SSE 6.9 mph - N/A   Light Drizzle
11:53 AM 79.0 °F - 73.9 °F 84% 29.81 in - SSE 8.1 mph - N/A   Unknown
11:55 AM 77.0 °F - 73.4 °F 89% 29.82 in 10.0 mi South 8.1 mph - N/A   Clear
12:15 PM 78.8 °F - 73.4 °F 83% 29.82 in 10.0 mi South 6.9 mph - N/A   Clear
12:35 PM 78.8 °F - 73.4 °F 83% 29.82 in 10.0 mi South 4.6 mph - N/A   Mostly Cloudy
12:53 PM 81.0 °F 86.2 °F 73.9 °F 79% 29.80 in - South 8.1 mph - N/A   Unknown
12:55 PM 78.8 °F - 73.4 °F 83% 29.82 in 7.0 mi SSW 5.8 mph - N/A Rain Light Rain
1:15 PM 80.6 °F 86.2 °F 75.2 °F 84% 29.81 in 10.0 mi SW 9.2 mph - N/A   Scattered Clouds
1:35 PM 80.6 °F 85.4 °F 73.4 °F 79% 29.81 in 10.0 mi SW 8.1 mph - N/A   Mostly Cloudy
1:53 PM 81.0 °F 85.8 °F 73.0 °F 77% 29.80 in - WSW 9.2 mph - N/A   Unknown
1:55 PM 78.8 °F - 73.4 °F 83% 29.82 in 10.0 mi WSW 8.1 mph - N/A   Scattered Clouds
2:15 PM 80.6 °F 84.6 °F 71.6 °F 74% 29.82 in 10.0 mi SW 8.1 mph - N/A   Clear
2:35 PM 80.6 °F 84.6 °F 71.6 °F 74% 29.81 in 10.0 mi SW 8.1 mph - N/A   Clear
2:53 PM 82.0 °F 87.4 °F 73.0 °F 74% 29.79 in - SW 8.1 mph - N/A   Unknown
2:55 PM 80.6 °F 84.6 °F 71.6 °F 74% 29.80 in 10.0 mi SW 9.2 mph - N/A   Clear
3:15 PM 80.6 °F 84.6 °F 71.6 °F 74% 29.80 in 10.0 mi WSW 8.1 mph - N/A   Scattered Clouds
3:35 PM 80.6 °F 84.6 °F 71.6 °F 74% 29.79 in 10.0 mi WSW 9.2 mph - N/A   Mostly Cloudy
3:53 PM 84.0 °F 90.2 °F 73.0 °F 69% 29.76 in - South 10.4 mph - N/A   Unknown
3:55 PM 82.4 °F 87.2 °F 71.6 °F 70% 29.78 in 10.0 mi SSW 9.2 mph - N/A   Scattered Clouds
4:15 PM 82.4 °F 87.2 °F 71.6 °F 70% 29.77 in 10.0 mi SW 9.2 mph - N/A   Scattered Clouds
4:35 PM 82.4 °F 87.2 °F 71.6 °F 70% 29.77 in 10.0 mi SW 6.9 mph - N/A   Clear
4:53 PM 84.0 °F 90.2 °F 73.0 °F 69% 29.76 in - SSW 9.2 mph - N/A   Unknown
4:55 PM 82.4 °F 87.2 °F 71.6 °F 70% 29.77 in 10.0 mi SW 10.4 mph - N/A   Scattered Clouds
5:15 PM 80.6 °F 83.9 °F 69.8 °F 70% 29.77 in 10.0 mi WSW 10.4 mph - N/A   Scattered Clouds
5:35 PM 80.6 °F 83.9 °F 69.8 °F 70% 29.77 in 10.0 mi WSW 8.1 mph - N/A   Clear
5:53 PM 84.0 °F 89.6 °F 72.0 °F 67% 29.75 in - SW 10.4 mph - N/A   Unknown
5:55 PM 82.4 °F 87.2 °F 71.6 °F 70% 29.76 in 10.0 mi WSW 10.4 mph - N/A   Clear
6:15 PM 80.6 °F 84.6 °F 71.6 °F 74% 29.76 in 10.0 mi WSW 11.5 mph - N/A   Clear
6:35 PM 80.6 °F 84.6 °F 71.6 °F 74% 29.76 in 10.0 mi WSW 10.4 mph - N/A   Clear
6:53 PM 82.0 °F 86.7 °F 72.0 °F 71% 29.75 in - SW 9.2 mph - N/A   Unknown
6:55 PM 80.6 °F 84.6 °F 71.6 °F 74% 29.76 in 10.0 mi SW 9.2 mph - N/A   Scattered Clouds
7:15 PM 80.6 °F 84.6 °F 71.6 °F 74% 29.77 in 10.0 mi SW 5.8 mph - N/A   Scattered Clouds
7:35 PM 78.8 °F - 71.6 °F 78% 29.77 in 10.0 mi SSW 4.6 mph - N/A   Clear
7:53 PM 81.0 °F 85.8 °F 73.0 °F 77% 29.75 in - Calm Calm - N/A   Unknown
7:55 PM 78.8 °F - 71.6 °F 78% 29.77 in 10.0 mi Calm Calm - N/A   Scattered Clouds
8:15 PM 78.8 °F - 71.6 °F 78% 29.77 in 10.0 mi SSE 3.5 mph - N/A   Mostly Cloudy
8:35 PM 77.0 °F - 71.6 °F 83% 29.77 in 10.0 mi SSE 3.5 mph - N/A   Scattered Clouds
8:53 PM 78.1 °F - 73.0 °F 84% 29.76 in - SSE 4.6 mph - 0.01 in   Unknown
8:55 PM 77.0 °F - 71.6 °F 83% 29.77 in 10.0 mi SSE 4.6 mph - N/A   Clear
9:15 PM 77.0 °F - 71.6 °F 83% 29.77 in 10.0 mi SSE 3.5 mph - N/A   Scattered Clouds
9:35 PM 77.0 °F - 73.4 °F 89% 29.78 in 10.0 mi Calm Calm - N/A   Mostly Cloudy
9:53 PM 78.1 °F - 73.0 °F 84% 29.77 in - South 5.8 mph - N/A   Unknown
9:55 PM 77.0 °F - 73.4 °F 89% 29.78 in 10.0 mi South 4.6 mph - N/A   Mostly Cloudy
10:15 PM 77.0 °F - 71.6 °F 83% 29.78 in 10.0 mi SSE 4.6 mph - N/A   Scattered Clouds
10:35 PM 77.0 °F - 73.4 °F 89% 29.80 in 10.0 mi South 4.6 mph - N/A   Clear
10:53 PM 78.1 °F - 73.0 °F 84% 29.79 in - SSE 3.5 mph - N/A   Unknown
10:55 PM 77.0 °F - 73.4 °F 89% 29.81 in 10.0 mi South 3.5 mph - N/A   Clear
11:15 PM 77.0 °F - 71.6 °F 83% 29.81 in 10.0 mi South 3.5 mph - N/A   Scattered Clouds
11:35 PM 77.0 °F - 71.6 °F 83% 29.81 in 10.0 mi South 5.8 mph - N/A   Scattered Clouds
11:53 PM 79.0 °F - 73.0 °F 82% 29.79 in - South 5.8 mph - N/A   Unknown
11:55 PM 77.0 °F - 73.4 °F 89% 29.80 in 10.0 mi SSE 4.6 mph - N/A   Light Drizzle